Location: Unspecified
(52.1384°N, 8.6525°W)
Time: 18:42:42
(UTC+00:00)

N. Korean satellite - Pass Details

Date: 02 November 2020
Orbit: 453 x 503 km, 97.2° (Epoch: 04 December)

Event Time Altitude Azimuth Distance (km) Brightness Sun altitude
Rises 05:52:34 0° 18° (NNE) 2,482 10.3 -15.6°
Reaches altitude 10° 05:54:41 10° 25° (NNE) 1,602 9.4 -15.3°
Maximum altitude 05:57:59 43° 99° (E) 652 7.8 -14.8°
Drops below altitude 10° 06:01:15 10° 172° (S) 1,594 9.3 -14.3°
Sets 06:03:21 0° 179° (S) 2,466 10.2 -14.0°
